Curtin, Western Australia

11:07 AM AWST on February 11, 2016 (GMT +0800)
Curtin

Weather History for YCIN - June, 2012

Change the Weather History Date:

Saturday, June 16, 2012

  Actual Average Record
Temperature  
Mean Temperature 75 °F -  
Max Temperature 88 °F - - ()
Min Temperature 62 °F - - ()
Cooling Degree Days 10    
Growing Degree Days 25 (Base 50)    
Moisture  
Dew Point 50 °F    
Average Humidity 41    
Maximum Humidity 88    
Minimum Humidity 19    
Precipitation  
Precipitation 0.00 in - - ()
Sea Level Pressure  
Sea Level Pressure 29.97 in    
Wind  
Wind Speed 8 mph ()    
Max Wind Speed 17 mph    
Max Gust Speed -    
T = Trace of Precipitation, MM = Missing Value Source: Averaged Metar Reports

Daily Weather History Graph

Daily Weather History Graph

Search for Another Location

Airport or City:

Trip Planner

Search our weather history database for the weather conditions in past years. The results will help you decide how hot, cold, wet, or windy it might be!

Date:

Astronomy

Jun. 16, 2012 Rise Set
Actual Time 6:12 AM AWST 5:17 PM AWST
Civil Twilight 5:49 AM AWST 5:41 PM AWST
Nautical Twilight 5:22 AM AWST 6:08 PM AWST
Astronomical Twilight 4:55 AM AWST 6:35 PM AWST
Moon 3:10 AM AWST (6/16) 2:43 PM AWST (6/16)
Length of Visible Light 11h 52m
Length of Day
11h 04m
Waning Crescent, 11% of the Moon is Illuminated
Jun 16
Waning Crescent
Jun 19
New
Jun 27
First Quarter
Jul 4
Full
Jul 11
Last Quarter

Hourly Weather History & Observations

Time (AWST) Temp. Dew Point Humidity Pressure Visibility Wind Dir Wind Speed Gust Speed Precip Events Conditions
12:00 AM 64 °F 60 °F 84% 29.93 in - SSE 3.5 mph - -  
12:00 AM 64.4 °F 60.8 °F 88% 29.92 in - SSE 3.5 mph - N/A   Unknown
1:00 AM 62.6 °F 59.0 °F 88% 29.92 in - SSE 5.8 mph - N/A   Unknown
2:00 AM 68.0 °F 53.6 °F 60% 29.92 in - SSE 8.1 mph - N/A   Unknown
3:00 AM 71 °F 49 °F 35% 29.93 in - SSE 11.5 mph - -  
3:00 AM 71.6 °F 50.0 °F 46% 29.92 in - SSE 11.5 mph - N/A   Unknown
4:00 AM 69.8 °F 46.4 °F 43% 29.92 in - SSE 12.7 mph - N/A   Unknown
5:00 AM 68.0 °F 46.4 °F 46% 29.95 in - SSE 12.7 mph - N/A   Unknown
6:00 AM 68 °F 45 °F 33% 29.97 in - SSE 11.5 mph - -  
6:00 AM 68.0 °F 44.6 °F 43% 29.98 in - SSE 11.5 mph - N/A   Unknown
7:00 AM 68.0 °F 46.4 °F 46% 30.01 in - SE 11.5 mph - N/A   Unknown
8:00 AM 71.6 °F 46.4 °F 41% 30.01 in - SE 17.3 mph - N/A   Unknown
9:00 AM 75 °F 46 °F 25% 30.03 in - ESE 16.1 mph - -  
9:00 AM 75.2 °F 46.4 °F 36% 30.04 in - ESE 16.1 mph - N/A   Unknown
10:00 AM 78.8 °F 48.2 °F 34% 30.01 in - ESE 15.0 mph - N/A   Unknown
11:00 AM 82.4 °F 48.2 °F 30% 30.01 in - ESE 13.8 mph - N/A   Unknown
12:00 PM 84.2 °F 48.2 °F 29% 29.98 in - ESE 12.7 mph - N/A   Unknown
1:00 PM 86.0 °F 50.0 °F 29% 29.95 in - SE 11.5 mph - N/A   Unknown
2:00 PM 87.8 °F 51.8 °F 29% 29.92 in - SE 9.2 mph - N/A   Unknown
3:00 PM 87 °F 51 °F 19% 29.92 in - SE 9.2 mph - -  
3:00 PM 86.0 °F 50.0 °F 29% 29.92 in - SE 9.2 mph - N/A   Unknown
4:00 PM 86.0 °F 51.8 °F 31% 29.92 in - ESE 9.2 mph - N/A   Unknown
5:00 PM 82.4 °F 51.8 °F 35% 29.95 in - SSE 6.9 mph - N/A   Unknown
6:00 PM 76 °F 51 °F 31% 29.96 in - SSE 5.8 mph - -  
6:00 PM 75.2 °F 51.8 °F 44% 29.95 in - SSE 5.8 mph - N/A   Unknown
7:00 PM 73.4 °F 51.8 °F 47% 29.98 in - SSE 6.9 mph - N/A   Unknown
8:00 PM 75.2 °F 50.0 °F 41% 29.98 in - SSE 8.1 mph - N/A   Unknown
9:00 PM 76 °F 48 °F 27% 30.01 in - SSE 8.1 mph - -  
9:00 PM 75.2 °F 48.2 °F 38% 30.01 in - SSE 8.1 mph - N/A   Unknown
10:00 PM 75.2 °F 48.2 °F 38% 30.01 in - SE 8.1 mph - N/A   Unknown
11:00 PM 75.2 °F 46.4 °F 36% 30.01 in - SE 10.4 mph - N/A   Unknown